Date String (YYYY-MM-DD hh:mm:ss) UTC,Instrument flags,Ambient pressure (hPa),Sample flow (lpm),Bypass flow (lpm),Sample temperature (°C),Ambient temperature (°C),ASC tube jacket temperature (°C),LED temperature (°C),Box temperature (°C),Sample RH (%),Span deviation,Mass concentration (μg/m³),Mass concentration (μg/m³),Mass concentration (μg/m³)
DateTimeUTC,F1_M11,P_M11,Q1_M11,Q2_M11,T1_M11,T2_M11,T3_M11,T4_M11,T5_M11,U1_M11,ZSPAN_M11,X0_M11,X2_M11,X1_M11
2023-03-11 21:00:00,,0815.7,5.01,0.00,22.9,21.5,00.0,31.7,24.7,07.0,0000.0,0002.80,0001.24,0000.63
2023-03-11 21:01:00,,0816.0,4.98,0.00,22.9,21.5,00.0,31.7,24.7,07.1,0000.0,0002.78,0001.24,0000.63
2023-03-11 21:02:00,,0815.9,5.00,0.00,22.9,21.5,00.0,31.7,24.8,07.1,0000.0,0002.63,0001.20,0000.62
2023-03-11 21:03:00,,0815.7,5.01,0.00,22.9,21.5,00.0,31.7,24.8,06.9,0000.0,0002.51,0001.21,0000.62
2023-03-11 21:04:00,,0815.8,4.98,0.00,22.9,21.5,00.0,31.7,24.7,06.8,0000.0,0002.76,0001.24,0000.62
2023-03-11 21:05:00,,0815.9,4.95,0.00,22.9,21.5,00.0,31.7,24.6,06.9,0000.0,0003.77,0001.18,0000.61
2023-03-11 21:06:00,,0816.0,5.00,0.00,22.9,21.5,00.0,31.7,24.6,07.0,0000.0,0003.65,0001.18,0000.61
2023-03-11 21:07:00,,0815.9,5.00,0.00,22.9,21.5,00.0,31.7,24.8,06.7,0000.0,0003.69,0001.22,0000.62
2023-03-11 21:08:00,,0815.8,5.00,0.00,22.9,21.6,00.0,31.7,24.8,06.6,0000.0,0003.70,0001.23,0000.62
2023-03-11 21:09:00,,0816.1,4.99,0.00,22.9,21.6,00.0,31.7,24.8,06.7,0000.0,0003.61,0001.21,0000.62
2023-03-11 21:10:00,,0815.8,4.98,0.00,22.9,21.6,00.0,31.7,24.8,06.7,0000.0,0003.59,0001.19,0000.62
2023-03-11 21:11:00,,0815.7,5.01,0.00,23.0,21.6,00.0,31.7,24.8,06.5,0000.0,0003.54,0001.15,0000.62
2023-03-11 21:12:00,,0815.7,5.00,0.00,23.0,21.5,00.0,31.7,24.8,06.4,0000.0,0003.57,0001.15,0000.63
2023-03-11 21:13:00,,0815.5,5.00,0.00,23.0,21.6,00.0,31.7,24.8,06.5,0000.0,0004.30,0001.15,0000.62
2023-03-11 21:14:00,,0815.4,5.00,0.00,23.0,21.6,00.0,31.7,24.8,06.4,0000.0,0004.24,0001.14,0000.62
2023-03-11 21:15:00,,0815.9,5.00,0.00,23.0,21.6,00.0,31.7,24.8,06.2,0000.0,0004.04,0001.15,0000.63
2023-03-11 21:16:00,,0815.9,5.00,0.00,23.0,21.6,00.0,31.7,24.9,06.4,0000.0,0002.93,0001.20,0000.64
2023-03-11 21:17:00,,0816.1,5.00,0.00,23.0,21.6,00.0,31.7,24.8,06.5,0000.0,0002.98,0001.21,0000.64
2023-03-11 21:18:00,,0815.8,4.99,0.00,23.0,21.6,00.0,31.7,24.8,06.6,0000.0,0002.99,0001.20,0000.64
2023-03-11 21:19:00,,0815.5,5.00,0.00,23.0,21.6,00.0,31.7,24.9,06.6,0000.0,0003.04,0001.22,0000.64
2023-03-11 21:20:00,,0815.6,5.00,0.00,23.0,21.6,00.0,31.7,24.9,06.8,0000.0,0003.08,0001.23,0000.65
2023-03-11 21:21:00,,0816.0,5.00,0.00,23.0,21.6,00.0,31.7,24.9,06.8,0000.0,0003.21,0001.28,0000.66
2023-03-11 21:22:00,,0815.6,4.99,0.00,23.0,21.6,00.0,31.7,24.9,06.8,0000.0,0003.17,0001.28,0000.66
2023-03-11 21:23:00,,0815.8,5.01,0.00,23.0,21.5,00.0,31.7,24.8,06.6,0000.0,0003.12,0001.26,0000.66
2023-03-11 21:24:00,,0815.8,5.00,0.00,23.0,21.5,00.0,31.7,24.8,06.7,0000.0,0002.37,0001.24,0000.67
2023-03-11 21:25:00,,0815.9,5.01,0.00,23.0,21.5,00.0,31.7,24.8,06.7,0000.0,0002.39,0001.25,0000.67
2023-03-11 21:26:00,,0815.7,5.00,0.00,23.0,21.5,00.0,31.7,24.8,06.9,0000.0,0002.45,0001.28,0000.66
2023-03-11 21:27:00,,0815.8,5.00,0.00,23.0,21.5,00.0,31.7,24.8,06.8,0000.0,0002.62,0001.29,0000.66
2023-03-11 21:28:00,,0815.8,5.00,0.00,23.0,21.5,00.0,31.7,24.9,06.9,0000.0,0003.45,0001.32,0000.66
2023-03-11 21:29:00,,0815.8,4.98,0.00,23.0,21.6,00.0,31.7,24.9,07.0,0000.0,0003.42,0001.31,0000.66
2023-03-11 21:30:00,,0815.8,5.00,0.00,23.0,21.6,00.0,31.7,24.9,07.2,0000.0,0004.08,0001.33,0000.65
2023-03-11 21:31:00,,0815.8,5.01,0.00,23.0,21.6,00.0,31.7,24.8,07.1,0000.0,0004.50,0001.34,0000.65
2023-03-11 21:32:00,,0815.8,5.00,0.00,23.0,21.6,00.0,31.7,24.8,07.0,0000.0,0004.47,0001.34,0000.66
2023-03-11 21:33:00,,0815.8,5.00,0.00,23.0,21.5,00.0,31.7,24.8,06.8,0000.0,0004.42,0001.31,0000.66
2023-03-11 21:34:00,,0815.8,5.00,0.00,22.9,21.5,00.0,31.7,24.8,06.9,0000.0,0004.39,0001.30,0000.66
2023-03-11 21:35:00,,0815.8,5.00,0.00,22.9,21.6,00.0,31.7,24.9,07.1,0000.0,0004.43,0001.31,0000.65
2023-03-11 21:36:00,,0815.8,5.01,0.00,22.9,21.6,00.0,31.7,24.8,07.0,0000.0,0004.51,0001.33,0000.64
2023-03-11 21:37:00,,0815.8,4.99,0.00,22.9,21.6,00.0,31.7,24.9,07.1,0000.0,0004.71,0001.35,0000.64
2023-03-11 21:38:00,,0815.9,4.99,0.00,22.9,21.5,00.0,31.7,24.8,07.2,0000.0,0004.74,0001.33,0000.63
2023-03-11 21:39:00,,0815.8,5.00,0.00,22.9,21.5,00.0,31.7,24.8,07.3,0000.0,0003.73,0001.27,0000.63
2023-03-11 21:40:00,,0815.8,4.99,0.00,22.9,21.5,00.0,31.7,24.8,07.1,0000.0,0003.70,0001.26,0000.63
2023-03-11 21:41:00,,0815.9,5.01,0.00,22.9,21.5,00.0,31.7,24.8,07.2,0000.0,0003.07,0001.24,0000.63
2023-03-11 21:42:00,,0815.8,4.99,0.00,22.9,21.5,00.0,31.7,24.8,07.3,0000.0,0002.66,0001.23,0000.62
2023-03-11 21:43:00,,0815.8,5.00,0.00,22.9,21.5,00.0,31.7,24.8,07.5,0000.0,0002.65,0001.22,0000.61
2023-03-11 21:44:00,,0815.9,4.99,0.00,22.9,21.5,00.0,31.7,24.8,07.5,0000.0,0002.63,0001.22,0000.61
2023-03-11 21:45:00,,0815.9,5.01,0.00,22.9,21.5,00.0,31.7,24.8,07.3,0000.0,0002.67,0001.25,0000.62
2023-03-11 21:46:00,,0816.0,5.00,0.00,22.9,21.5,00.0,31.7,24.8,07.4,0000.0,0003.24,0001.21,0000.61
2023-03-11 21:47:00,,0815.9,4.99,0.00,22.9,21.5,00.0,31.7,24.8,07.4,0000.0,0003.94,0001.22,0000.62
2023-03-11 21:48:00,,0815.7,5.00,0.00,22.9,21.5,00.0,31.7,24.8,07.3,0000.0,0003.70,0001.16,0000.61
2023-03-11 21:49:00,,0815.8,5.01,0.00,22.9,21.5,00.0,31.7,24.8,07.3,0000.0,0003.52,0001.11,0000.61
2023-03-11 21:50:00,,0815.9,5.00,0.00,22.9,21.5,00.0,31.7,24.8,07.4,0000.0,0003.46,0001.09,0000.61
2023-03-11 21:51:00,,0815.8,5.00,0.00,22.9,21.5,00.0,31.7,24.8,07.6,0000.0,0003.47,0001.09,0000.60
2023-03-11 21:52:00,,0815.8,5.00,0.00,22.9,21.5,00.0,31.6,24.8,07.7,0000.0,0003.58,0001.10,0000.60
2023-03-11 21:53:00,,0815.9,5.01,0.00,22.9,21.5,00.0,31.7,24.8,07.7,0000.0,0003.69,0001.11,0000.60
2023-03-11 21:54:00,,0815.8,5.00,0.00,22.9,21.5,00.0,31.6,24.8,07.8,0000.0,0003.67,0001.11,0000.60
2023-03-11 21:55:00,,0815.9,4.99,0.00,22.9,21.5,00.0,31.7,24.8,07.6,0000.0,0003.78,0001.16,0000.61
2023-03-11 21:56:00,,0815.9,5.00,0.00,22.9,21.5,00.0,31.6,24.8,07.6,0000.0,0003.77,0001.14,0000.59
2023-03-11 21:57:00,,0816.0,4.99,0.00,22.9,21.5,00.0,31.6,24.8,07.6,0000.0,0003.28,0001.14,0000.58
2023-03-11 21:58:00,,0816.0,5.01,0.00,22.9,21.5,00.0,31.6,24.8,07.7,0000.0,0002.36,0001.13,0000.59
2023-03-11 21:59:00,,0816.0,5.00,0.00,22.9,21.5,00.0,31.6,24.8,07.5,0000.0,0002.35,0001.13,0000.60
